Northeast Philadelphia, PA

2:05 AM EDT on March 26, 2017 (GMT -0400)
Northeast Philadelphia

Weather History for KPNE - May, 2012

Change the Weather History Date:

Sunday, May 13, 2012

  Actual Average Record
Temperature  
Mean Temperature 68 °F -  
Max Temperature 80 °F 69 °F 87 °F (2004)
Min Temperature 57 °F 48 °F 41 °F (2005)
Cooling Degree Days 4    
Growing Degree Days 18 (Base 50)    
Moisture  
Dew Point 50 °F    
Average Humidity 51    
Maximum Humidity 74    
Minimum Humidity 36    
Precipitation  
Precipitation 0.00 in - - ()
Sea Level Pressure  
Sea Level Pressure 30.17 in    
Wind  
Wind Speed 6 mph (SW)    
Max Wind Speed 15 mph    
Max Gust Speed 22 mph    
Visibility 10 miles    
Events      
Averages and records for this station are not official NWS values.
T = Trace of Precipitation, MM = Missing Value Source: NWS Daily Summary

Daily Weather History Graph

Daily Weather History Graph

Search for Another Location

Airport or City:

Trip Planner

Search our weather history database for the weather conditions in past years. The results will help you decide how hot, cold, wet, or windy it might be!

Date:

Astronomy

May. 13, 2012 Rise Set
Actual Time 5:46 AM EDT 8:07 PM EDT
Civil Twilight 5:15 AM EDT 8:37 PM EDT
Nautical Twilight 4:37 AM EDT 9:15 PM EDT
Astronomical Twilight 3:56 AM EDT 9:57 PM EDT
Moon 1:50 AM EDT (5/13) 1:25 PM EDT (5/13)
Length of Visible Light 15h 22m
Length of Day
14h 21m
Last Quarter, 42% of the Moon is Illuminated
May 13
Last Quarter
May 20
New
May 28
First Quarter
Jun 4
Full
Jun 11
Last Quarter

Hourly Weather History & Observations

Time (EDT) Temp. Dew Point Humidity Pressure Visibility Wind Dir Wind Speed Gust Speed Precip Events Conditions
12:54 AM 64.0 °F 42.1 °F 45% 30.22 in 10.0 mi WSW 5.8 mph - N/A   Clear
1:54 AM 62.1 °F 43.0 °F 50% 30.21 in 10.0 mi WSW 4.6 mph - N/A   Clear
2:54 AM 61.0 °F 44.1 °F 54% 30.20 in 10.0 mi WSW 3.5 mph - N/A   Clear
3:54 AM 59.0 °F 45.0 °F 60% 30.20 in 10.0 mi Calm Calm - N/A   Clear
4:54 AM 57.9 °F 46.0 °F 65% 30.20 in 10.0 mi Calm Calm - N/A   Clear
5:54 AM 57.0 °F 48.0 °F 72% 30.21 in 10.0 mi Calm Calm - N/A   Clear
6:54 AM 57.0 °F 48.9 °F 74% 30.22 in 10.0 mi Calm Calm - N/A   Clear
7:54 AM 62.6 °F 50.0 °F 63% 30.22 in 10.0 mi SW 3.5 mph - N/A   Clear
8:54 AM 66.0 °F 50.0 °F 56% 30.21 in 10.0 mi SW 8.1 mph - N/A   Clear
9:54 AM 70.0 °F 50.0 °F 49% 30.21 in 10.0 mi SSW 10.4 mph - N/A   Clear
10:54 AM 71.6 °F 51.8 °F 50% 30.20 in 10.0 mi SW 8.1 mph 16.1 mph N/A   Clear
11:54 AM 75.0 °F 52.0 °F 44% 30.19 in 10.0 mi Variable 6.9 mph - N/A   Clear
12:54 PM 77.0 °F 51.8 °F 41% 30.17 in 10.0 mi Variable 4.6 mph - N/A   Clear
1:54 PM 78.1 °F 51.1 °F 39% 30.15 in 10.0 mi SSW 10.4 mph 18.4 mph N/A   Partly Cloudy
2:54 PM 79.0 °F 51.1 °F 38% 30.14 in 10.0 mi SSW 15.0 mph 21.9 mph N/A   Clear
3:54 PM 80.1 °F 51.1 °F 36% 30.12 in 10.0 mi SW 13.8 mph 19.6 mph N/A   Clear
4:54 PM 79.0 °F 51.1 °F 38% 30.11 in 10.0 mi SW 10.4 mph - N/A   Clear
5:54 PM 78.1 °F 52.0 °F 40% 30.10 in 10.0 mi SW 11.5 mph 17.3 mph N/A   Mostly Cloudy
6:54 PM 77.0 °F 52.0 °F 42% 30.10 in 10.0 mi SW 10.4 mph 16.1 mph N/A   Overcast
7:54 PM 75.9 °F 53.1 °F 45% 30.11 in 10.0 mi SW 6.9 mph - N/A   Overcast
8:54 PM 75.0 °F 53.1 °F 46% 30.12 in 10.0 mi Variable 3.5 mph - N/A   Scattered Clouds
9:54 PM 72.0 °F 55.0 °F 55% 30.14 in 10.0 mi Variable 5.8 mph - N/A   Clear
10:54 PM 71.1 °F 55.0 °F 57% 30.14 in 10.0 mi SSW 8.1 mph - N/A   Clear
11:54 PM 71.1 °F 54.0 °F 55% 30.14 in 10.0 mi SSW 8.1 mph - N/A   Overcast